Vertical_Velocity
1 -1 1 1 -1 -1 -2 -2 -0 -0 -0 -3 -2 -0 -2 -2 -1 -1 0 -1 -3 2
-1 -0 1 -0 1 -1 -1 -2 0 -0 -1 -4 -1 -1 -3 -1 2 -1 -1 -1 -1 -0
1 1 -1 3 1 0 -3 -2 0 -1 -2 -1 1 -0 -1 2 -0 -0 -2 -0 1 1
1 0 -0 0 1 0 -1 -2 -1 -1 -1 -5 2 1 1 -0 -1 0 -1 -1 0 0
1 -1 1 2 1 1 -2 -3 -1 1 2 -6 2 1 1 -1 -1 -1 1 1 2 0
-2 -1 1 1 1 1 -2 -3 -1 1 1 -4 -0 3 1 2 -0 -1 -1 -1 1 -1
-0 -0 2 -1 -1 -1 -3 -2 -0 -0 1 -4 1 1 2 1 0 1 -1 -0 0 -1
1 -1 -1 4 1 -2 0 -1 -1 1 1 -2 -0 -1 -1 -0 -1 0 1 1 -1 0
1 -2 3 -3 2 -4 1 -1 0 0 -1 -1 -1 -0 1 -3 -1 -1 -0 1 3 0
3 -2 6 -6 2 -1 -1 -2 -0 1 0 -1 0 1 -2 -3 -2 -2 -2 -1 0 0
1 -2 2 -6 -1 0 -1 -2 1 -0 -1 -1 0 1 -0 -0 1 0 -0 -1 -0 0
1 -2 -2 -3 2 -0 -1 -0 -1 -1 0 0 1 1 -0 2 2 2 0 0 -0 -1
0 -2 -3 -1 -0 -2 -4 -4 -4 -3 -2 -0 2 1 -1 -0 0 2 2 1 1 2
-1 -3 -3 -3 -2 -1 -2 -2 0 1 -0 -2 1 1 -1 -2 -2 2 1 1 2 1
Height
3082 3076 3070 3064 3058 3053 3046 3041 3035 3028 3021 3014 3009 3004 2998 2990 2983 2977 2972 2966 2960 2956
3078 3072 3067 3061 3056 3050 3044 3038 3032 3024 3018 3012 3006 3000 2993 2986 2980 2974 2968 2962 2957 2952
3075 3069 3064 3059 3053 3047 3041 3035 3028 3021 3015 3010 3003 2997 2990 2983 2976 2970 2964 2958 2954 2949
3072 3067 3062 3057 3051 3045 3039 3033 3026 3019 3012 3007 3001 2994 2987 2980 2973 2967 2960 2955 2950 2945
3070 3066 3060 3055 3050 3044 3038 3030 3023 3016 3010 3005 2998 2991 2984 2976 2970 2964 2958 2952 2947 2942
3068 3064 3059 3054 3049 3043 3036 3028 3020 3014 3008 3002 2995 2989 2981 2974 2967 2960 2953 2948 2942 2937
3067 3063 3058 3053 3047 3042 3035 3026 3018 3012 3007 3000 2993 2985 2979 2971 2964 2957 2950 2944 2938 2933
3066 3062 3057 3052 3047 3041 3033 3025 3017 3011 3006 2999 2991 2983 2976 2969 2961 2955 2949 2942 2935 2929
3065 3061 3056 3052 3047 3040 3033 3025 3017 3011 3004 2997 2990 2982 2974 2967 2960 2954 2946 2938 2931 2925
3064 3060 3056 3052 3046 3040 3033 3025 3017 3010 3004 2996 2989 2982 2974 2967 2960 2952 2944 2936 2929 2923
3063 3060 3057 3051 3046 3039 3033 3025 3018 3011 3003 2995 2989 2982 2975 2967 2960 2952 2943 2934 2927 2922
3063 3060 3056 3051 3046 3040 3033 3026 3019 3011 3003 2996 2989 2982 2975 2968 2960 2952 2942 2934 2927 2922
3064 3060 3056 3051 3045 3039 3033 3026 3019 3012 3004 2996 2989 2982 2975 2968 2961 2952 2943 2935 2928 2923
3064 3060 3056 3051 3045 3040 3033 3027 3022 3015 3007 2999 2991 2984 2977 2970 2961 2953 2944 2936 2930 2926